Overview Statistics Trail Chart Weather Telemetry Raw packets
 

This is the latest recevied weather packets stored in our database for station/object KA6UPU-1. If no packets are shown the sender has not sent any weather packets the latest 10 day(s).

<< 90 91 92 93 94 95 >>
Time Temp. Humidity Pressure Rain* Wind** Luminosity Snow
1787855660 32.22° C 33% 1013.8 hPa 0 mm - - -
1787855360 31.67° C 35% 1013.9 hPa 0 mm - - -
1787855060 31.11° C 36% 1013.8 hPa 0 mm - - -
1787854460 31.11° C 37% 1013.9 hPa 0 mm - - -
1787854160 30.56° C 37% 1014 hPa 0 mm - - -
1787853860 30.56° C 37% 1014 hPa 0 mm - - -
1787853261 30° C 40% 1014 hPa 0 mm - - -
1787851460 28.89° C 44% 1013.7 hPa 0 mm - - -
1787851160 28.89° C 44% 1013.7 hPa 0 mm - - -
1787850860 28.89° C 44% 1013.5 hPa 0 mm - - -
1787850560 28.33° C 44% 1013.5 hPa 0 mm - - -
1787849960 28.33° C 46% 1013.4 hPa 0 mm - - -
1787849660 27.78° C 45% 1013.5 hPa 0 mm - - -
1787849060 27.22° C 47% 1013.4 hPa 0 mm - - -
1787848760 27.22° C 48% 1013.4 hPa 0 mm - - -
1787848461 27.22° C 49% 1013.5 hPa 0 mm - - -
1787847260 26.11° C 50% 1013.5 hPa 0 mm - - -
1787846960 26.11° C 51% 1013.5 hPa 0 mm - - -
1787846660 25.56° C 53% 1013.4 hPa 0 mm - - -
1787846060 25° C 56% 1013.5 hPa 0 mm - - -
1787845760 24.44° C 57% 1013.5 hPa 0 mm - - -
1787845460 24.44° C 56% 1013.6 hPa 0 mm - - -
1787844560 23.33° C 58% 1013.6 hPa 0 mm - - -
1787844260 22.78° C 61% 1013.6 hPa 0 mm - - -
1787843960 22.22° C 63% 1013.6 hPa 0 mm - - -

* Rain latest hour (hover to see other rain measurements)
** Current wind speed in m/s (hover to see current wind gust speed)